Regional Weather Roundup
Issued by NWS

Home | Current Version | Previous Version | Text Only | Print | Product List | Glossary Off
Versions: 1 2 3 4 5 6 7 8 9 10 11 12 13 14 15 16 17 18 19 20 21 22 23 24 25 26 27 28 29 30 31 32 33 34 35 36 37 38 39 40 41 42 43 44 45 46 47 48 49 50

000
ASUS45 KCYS 011010
RWRWY

WYOMING REGIONAL WEATHER ROUNDUP
NATIONAL WEATHER SERVICE CHEYENNE WY
400 AM MDT MON SEP 01 2014

NOTE:  "FAIR" INDICATES FEW OR NO CLOUDS BELOW 12,000 FEET
WITH NO SIGNIFICANT WEATHER AND/OR OBSTRUCTIONS TO VISIBILITY.

WYZ001-011100-
YELLOWSTONE NATIONAL PARK

CITY           SKY/WX    TMP DP  RH WIND       PRES   REMARKS
LK YELLOWSTONE   N/A     39  37  92 VRB3      30.14
W YELLOWSTONE  NOT AVBL

$$
WYZ002>013-054>058-071-098>099-011100-
NORTHERN WYOMING

CITY           SKY/WX    TMP DP  RH WIND       PRES   REMARKS
JACKSON        CLOUDY    36  36 100 N3        30.10R VSB 1/2
CODY           CLOUDY    54  41  62 SW5       29.98F
GREYBULL       CLOUDY    53  50  89 SE5       29.96S
WORLAND        LGT RAIN  51  49  92 E5        29.97S
SHERIDAN       CLOUDY    53  46  77 NW3       29.97R
BUFFALO        CLOUDY    51  40  65 SW5       29.98F
GILLETTE       PTCLDY    49  43  80 CALM      29.96R
HULETT         FAIR      45  43  93 MISG      29.96
NEWCASTLE      FAIR      43  43 100 CALM      29.99

$$
WYZ014>020-022>026-101>103-011100-
CENTRAL WYOMING

CITY           SKY/WX    TMP DP  RH WIND       PRES   REMARKS
BIG PINEY      PTCLDY    35  32  88 N3        30.13S
PINEDALE       MOSUNNY   32  32 100 W5        30.14S WCI  27
DUBOIS         PTSUNNY   36  32  87 W10       30.08F WCI  28
LANDER         MOCLDY    48  41  76 E3        30.02F
RIVERTON       MOCLDY    48  37  65 NW9       30.03S
CASPER         PTCLDY    45  43  93 W5        30.02S
DOUGLAS        PTCLDY    44  42  93 CALM      30.02S

$$
WYZ021-027>030-104>119-011100-
SOUTHERN WYOMING

CITY           SKY/WX    TMP DP  RH WIND       PRES   REMARKS
EVANSTON       CLEAR     45  29  53 S7        30.14S
KEMMERER       MOSUNNY   39  34  81 N5        30.14F
FORT BRIDGER   FAIR      48  31  50 W7        30.16F
ROCK SPRINGS   PTCLDY    44  32  62 SW8       30.13S
DIXON          FAIR      43  39  87 CALM      30.16S
RAWLINS        PTCLDY    45  36  70 SW7       30.10S
SARATOGA       FAIR      39  36  87 E3        30.13S
LARAMIE        PTCLDY    39  35  86 W6        30.11S WCI  35
CHEYENNE       CLOUDY    47  42  83 W7        30.07F
TORRINGTON     CLEAR     48  46  93 NW6       29.99S
PINE BLUFFS    FAIR      45  43  93 NW7       30.03F

$$


USA.gov is the U.S. government's official web portal to all federal, state and local government web resources and services.